OE3GWU-13 Weather Reports


time (UTC)temp
F
wind
direction
speed
knots
gust
knots
rain 1hr
in
rain 24hr
in
rain mn
in
humidity
%
barometer
mb
20260505102004 70 182 2.6 6.1 0.00 0.00 0.00 41 1012.2
20260505101004 71 13 1.7 4.3 0.00 0.00 0.00 39 1012.2
20260505100004 72 196 2.6 7.8 0.00 0.00 0.00 40 1012.4
20260505094004 71 193 4.3 6.1 0.00 0.00 0.00 40 1012.5
20260505093004 71 346 0.9 7.8 0.00 0.00 0.00 36 1012.9
20260505083004 70 350 0.9 2.6 0.00 0.00 0.00 39 1012.9
20260505082004 69 292 1.7 4.3 0.00 0.00 0.00 43 1012.9
20260505081004 69 358 0.0 0.9 0.00 0.00 0.00 40 1012.9
20260505080004 69 10 0.9 2.6 0.00 0.00 0.00 44 1012.9
20260505075004 69 299 0.9 4.3 0.00 0.00 0.00 44 1013.2
20260505071004 66 321 0.9 2.6 0.00 0.00 0.00 56 1013.2
20260505070005 65 226 2.6 4.3 0.00 0.00 0.00 61 1013.2
20260505063004 61 316 0.9 1.7 0.00 0.00 0.00 68 1013.2
20260505062004 61 355 0.0 1.7 0.00 0.00 0.00 68 1013.5
20260505060004 61 349 0.0 0.0 0.00 0.00 0.00 68 1013.9
20260505052004 55 353 0.0 0.0 0.00 0.00 0.00 76 1013.5
20260505051004 52 353 0.0 0.0 0.00 0.00 0.00 82 1013.7
20260505041004 45 352 0.0 0.9 0.00 0.00 0.00 90 1013.9
20260505040005 47 359 0.9 0.9 0.00 0.00 0.00 87 1013.9
20260505035004 45 348 0.9 0.9 0.00 0.00 0.00 89 1013.9
20260505032004 46 354 0.0 0.9 0.00 0.00 0.00 88 1013.9
20260505031004 46 13 0.0 0.0 0.00 0.00 0.00 88 1013.9
20260505030004 47 0 0.0 0.0 0.00 0.00 0.00 86 1014.2
20260505025004 49 350 0.0 0.0 0.00 0.00 0.00 84 1014.2
20260505015004 51 345 0.0 0.9 0.00 0.00 0.00 81 1014.2
20260505013004 53 1 0.9 0.9 0.00 0.00 0.00 76 1014.2
20260505012004 53 355 0.9 0.9 0.00 0.00 0.00 78 1014.2
20260505011004 53 350 0.0 0.9 0.00 0.00 0.00 77 1014.2
20260505004004 53 2 0.9 1.7 0.00 0.00 0.00 77 1014.6
20260505003004 54 348 0.0 2.6 0.00 0.00 0.00 76 1014.6
20260505002004 53 342 0.9 1.7 0.00 0.00 0.00 77 1014.9
20260505000004 53 353 0.9 1.7 0.00 0.00 0.00 77 1015.0
20260504235005 53 351 0.9 1.7 0.00 0.00 0.00 75 1015.2
20260504234004 53 347 0.9 1.7 0.00 0.00 0.00 73 1014.9
20260504232004 54 347 0.0 0.9 0.00 0.00 0.00 69 1015.2
20260504225004 54 358 0.0 0.9 0.00 0.00 0.00 66 1015.9
20260504224004 54 352 0.0 0.9 0.00 0.00 0.00 66 1015.9
20260504223004 54 347 0.0 1.7 0.00 0.00 0.00 64 1015.9
20260504222004 53 349 0.9 1.7 0.00 0.00 0.00 63 1015.9
20260504221004 54 6 0.9 0.9 0.00 0.00 0.00 65 1015.9
20260504213004 55 345 0.0 0.9 0.00 0.00 0.00 62 1015.9
20260504212004 56 12 0.9 1.7 0.00 0.00 0.00 58 1015.9
20260504211004 55 349 1.7 1.7 0.00 0.00 0.00 59 1016.3
20260504210004 55 348 0.0 0.9 0.00 0.00 0.00 61 1016.3
20260504203004 57 350 0.9 0.9 0.00 0.00 0.00 56 1015.6
20260504201006 58 342 0.0 0.9 0.00 0.00 0.00 54 1015.8
20260504194004 60 320 0.0 0.0 0.00 0.00 0.00 50 1015.9
20260504190004 61 345 1.7 2.6 0.00 0.00 0.00 49 1015.9
20260504185004 62 344 1.7 4.3 0.00 0.00 0.00 48 1015.9
20260504182004 63 341 0.9 1.7 0.00 0.00 0.00 48 1016.3
20260504181004 63 183 0.0 2.6 0.00 0.00 0.00 49 1015.9
20260504180004 64 346 0.0 1.7 0.00 0.00 0.00 51 1015.9
20260504175004 64 242 0.9 1.7 0.00 0.00 0.00 51 1015.9
20260504174004 65 37 0.0 2.6 0.00 0.00 0.00 51 1016.3
20260504173004 65 339 0.0 5.2 0.00 0.00 0.00 51 1015.9
20260504171004 66 20 0.0 5.2 0.00 0.00 0.00 51 1016.3